Theta_e
287 282 278 276 280 280 280 281 282 282 283 282 280 280 279 278 279 281 282 285 283 282 279 280 280 280 283 284 285 284 284 285 284 284 284 284 285 285 284 284 284 284 286 289 290 290 290 290 290 290 289 290 290 289 289 289 289 288 288 288 289 288 287 288 287 289 288 287 287 286 285 284 286 286 288 287 286 288 289 290 290 291 292 293 295 297
287 283 280 280 281 281 282 281 281 281 281 282 280 280 280 280 279 283 283 283 284 284 280 279 282 284 285 285 285 284 284 285 284 284 283 284 283 284 284 284 284 285 286 288 289 290 289 289 290 290 289 290 289 291 290 289 289 288 288 289 289 288 287 286 287 288 287 287 287 286 284 283 284 285 285 285 286 287 288 287 288 290 290 291 292 295
283 280 281 283 283 283 281 281 280 281 279 278 282 280 280 278 281 282 283 282 284 284 281 279 282 283 284 285 284 284 284 282 284 285 284 284 285 285 284 284 285 285 286 286 287 288 288 288 289 288 288 289 288 289 289 289 289 289 289 289 289 288 288 288 289 290 287 287 288 286 285 285 284 283 285 284 286 286 286 286 286 288 287 289 290 291
283 281 283 284 283 283 281 280 279 277 279 279 278 278 279 279 280 277 279 281 284 283 280 280 280 282 283 283 283 283 283 284 285 284 284 284 286 285 285 286 286 285 285 286 287 288 288 287 288 288 289 289 288 288 288 289 289 289 292 290 289 289 288 287 288 294 289 289 290 287 287 286 285 285 288 285 285 285 286 286 286 286 286 287 288 289
281 284 285 282 282 284 282 279 280 278 279 278 278 276 277 278 277 277 278 280 281 283 282 281 278 279 280 280 281 284 284 287 286 286 286 286 286 285 286 286 286 286 286 286 286 287 287 288 289 288 289 288 288 289 289 289 289 292 290 290 289 288 288 288 291 289 289 290 287 286 286 286 285 283 283 284 285 285 287 287 285 285 286 286 287 287
281 285 285 282 281 281 279 278 277 276 276 275 278 279 280 278 278 277 278 279 277 279 280 280 275 276 278 278 279 281 282 283 282 282 284 285 285 285 286 286 287 286 287 287 287 288 287 287 288 288 288 288 288 289 290 288 290 289 290 290 289 288 288 288 287 288 290 288 286 285 285 285 284 283 283 284 284 284 284 284 284 285 285 285 286 287
283 284 282 282 281 280 279 280 280 278 276 276 281 279 281 279 278 277 278 278 275 277 279 277 278 274 276 279 282 280 280 282 283 282 283 284 285 285 285 286 285 286 287 287 286 286 287 288 287 288 288 288 287 290 289 288 289 290 290 290 289 289 289 289 289 288 293 286 286 286 285 285 284 283 283 283 284 283 284 284 283 284 284 284 285 286
283 283 283 279 278 278 279 280 280 279 276 278 281 279 280 279 280 278 277 275 277 276 276 274 277 275 274 278 280 280 280 281 281 282 284 284 284 285 285 285 285 286 286 286 287 287 287 287 287 288 290 288 289 290 288 288 289 290 291 290 291 290 292 290 289 288 290 287 287 286 284 288 287 284 284 285 285 285 286 283 283 283 284 284 284 285
283 283 281 281 277 277 279 281 282 281 281 280 281 280 281 280 280 278 278 277 276 277 274 273 274 276 273 277 279 280 282 279 279 281 284 284 284 284 285 285 285 285 286 286 287 288 288 289 289 288 289 289 288 288 289 289 289 289 290 291 291 292 290 290 287 290 286 291 287 285 285 284 286 286 288 287 285 285 284 282 283 282 283 284 283 284
284 283 283 282 280 280 280 280 280 281 279 281 282 281 281 280 279 280 278 279 277 276 274 276 274 275 275 275 277 278 281 280 280 280 282 284 284 284 285 285 285 285 286 286 286 287 288 288 288 288 288 288 290 289 289 289 289 289 289 291 292 292 292 291 288 288 287 287 291 284 284 284 284 285 285 283 283 283 283 282 282 282 283 283 283 283
284 287 287 282 282 284 282 280 280 281 282 282 281 280 279 278 275 275 275 277 274 271 275 276 275 277 273 275 277 280 281 280 280 281 282 282 282 283 284 285 286 286 286 286 286 286 287 288 287 288 288 289 289 289 287 288 288 288 289 290 290 292 292 292 290 288 286 285 287 285 285 284 284 284 283 284 284 283 283 283 282 282 283 282 283 283
284 283 285 285 286 284 283 282 282 281 281 282 279 278 279 280 276 274 267 266 273 270 274 278 276 278 272 276 279 281 280 281 283 283 283 283 283 284 284 285 285 285 286 286 286 287 288 288 289 288 289 289 290 289 289 289 288 288 289 289 290 291 291 291 291 289 289 286 285 286 285 285 285 284 284 284 283 283 283 282 282 282 282 282 283 282
284 283 283 284 288 284 281 282 282 282 280 279 278 278 278 273 271 275 271 273 268 275 279 276 278 276 275 278 278 278 281 281 281 283 283 282 282 283 284 285 285 285 285 286 287 287 288 288 288 289 289 289 289 290 289 290 289 288 288 288 288 290 291 291 289 289 289 288 287 286 286 285 287 285 284 284 283 283 283 283 282 282 282 282 283 282
283 283 283 283 284 284 283 280 279 280 280 281 277 275 274 271 265 268 264 268 268 274 278 276 278 277 278 280 281 282 283 283 283 283 283 284 284 284 285 285 285 286 286 287 287 286 286 287 288 288 289 289 289 289 290 289 289 289 289 288 288 290 290 290 290 289 289 289 289 287 286 286 286 286 286 285 285 284 283 283 282 282 283 283 283 282
275 278 283 282 282 282 281 282 282 281 279 279 279 279 277 272 274 272 268 274 273 274 275 275 274 272 278 282 283 283 282 281 281 282 282 282 283 283 283 284 285 285 286 286 285 287 287 288 288 289 289 289 289 289 289 289 289 288 289 289 289 289 290 289 289 289 289 290 289 288 287 286 285 285 285 286 286 285 284 283 283 283 283 282 284 283
282 279 283 283 283 282 281 283 281 279 280 279 279 278 278 275 272 276 268 268 267 269 271 272 276 275 281 282 282 281 279 282 281 282 283 285 284 283 285 286 286 286 286 286 286 287 287 287 287 287 288 288 288 289 289 289 289 288 289 289 289 289 290 290 290 290 290 290 290 289 287 288 288 289 288 287 287 286 285 285 284 284 283 284 283 283
277 283 283 282 283 281 282 282 282 282 279 280 278 274 278 278 276 268 271 269 269 267 270 270 278 280 281 282 282 279 281 283 281 282 282 284 284 282 284 286 286 286 286 286 286 287 288 287 287 287 287 288 288 288 289 290 290 289 290 289 289 290 289 289 290 290 289 289 288 290 289 288 287 286 286 287 286 286 285 285 284 284 284 284 283 284
278 278 280 282 283 284 281 281 281 282 283 279 277 279 281 280 277 275 273 263 262 269 271 272 274 277 278 277 280 282 281 282 281 282 282 282 282 283 286 286 286 287 287 286 286 286 287 287 288 288 288 288 289 289 289 290 289 289 289 289 289 289 289 291 290 289 289 288 288 289 289 289 289 288 287 287 286 285 285 284 285 284 284 284 285 285
281 276 282 282 281 283 281 283 283 283 283 281 282 279 281 272 275 270 269 269 269 265 268 273 274 275 277 279 278 280 280 282 282 282 281 284 284 284 284 285 286 286 286 287 287 287 288 288 288 288 289 289 288 288 288 289 289 288 287 288 288 289 290 290 291 289 290 288 289 290 290 290 290 288 288 287 287 285 285 285 285 285 286 285 285 285
281 276 277 281 283 282 281 280 278 278 282 278 281 281 276 277 273 270 272 270 270 268 269 272 270 276 278 277 279 282 280 281 281 280 282 283 284 284 284 285 286 287 287 287 287 287 288 288 288 288 289 289 290 289 289 288 288 288 289 288 288 289 289 289 289 290 290 290 289 289 289 289 289 289 289 288 287 287 286 287 286 286 285 285 285 285
279 279 273 279 278 281 280 279 280 279 279 279 277 275 278 275 276 277 273 273 273 265 265 264 271 274 279 279 280 280 279 282 281 283 283 284 284 284 284 286 286 286 287 287 287 288 288 288 288 288 288 288 288 287 288 288 288 289 289 288 288 289 289 289 290 289 290 290 289 288 288 289 289 289 289 288 287 287 288 288 287 287 287 285 285 285
275 276 276 276 277 277 280 280 279 278 279 280 278 280 278 276 273 273 272 268 266 271 267 265 273 277 283 283 282 281 281 281 281 283 284 283 284 284 285 286 286 286 287 287 287 287 287 287 288 288 288 287 286 288 288 289 287 288 288 289 289 287 289 289 290 290 290 289 289 289 289 289 289 289 288 288 288 287 288 288 288 288 285 285 287 285
280 275 277 275 276 279 279 280 279 279 278 276 278 280 277 276 273 267 269 270 268 269 265 266 268 276 284 280 280 281 280 281 281 281 283 285 285 285 285 286 286 285 286 287 287 287 287 287 287 287 287 287 288 288 288 288 288 289 289 289 288 288 290 290 290 290 290 290 289 290 289 289 289 289 288 287 288 287 288 288 288 287 286 287 287 286
286 271 272 275 275 277 278 278 278 278 279 279 277 278 277 278 277 277 274 270 270 269 269 267 267 277 283 280 280 281 280 279 280 279 283 284 285 285 286 287 287 286 287 286 286 287 287 287 286 285 286 287 288 287 288 289 289 289 289 289 289 288 290 290 290 290 289 289 289 289 289 289 289 288 288 287 288 288 288 288 288 287 287 287 287 287
276 276 276 270 270 271 273 276 276 274 275 276 277 277 277 278 277 276 273 269 273 270 272 272 270 273 279 280 280 281 280 282 283 284 281 283 285 286 287 287 287 286 286 286 287 287 287 287 287 287 287 287 288 287 288 288 289 289 289 289 289 289 290 289 289 288 289 288 289 289 288 288 288 288 288 288 288 288 288 288 288 288 287 287 286 287
278 274 274 273 273 272 273 273 273 272 276 276 276 278 278 279 277 276 273 268 271 268 272 267 270 280 281 281 283 282 282 285 286 286 284 283 285 286 287 287 287 287 287 287 287 287 287 287 287 286 287 287 287 287 288 288 288 289 289 289 289 289 289 289 288 288 288 288 287 288 288 288 288 288 288 288 288 288 289 288 288 288 288 287 287 287
272 274 276 275 275 276 279 279 280 281 277 276 278 277 278 278 278 277 274 268 273 268 273 277 277 281 284 287 285 284 283 284 286 287 287 287 287 287 286 287 287 287 287 287 287 287 286 286 287 287 287 287 287 287 288 288 288 288 288 289 289 289 289 289 288 288 287 287 287 287 288 288 288 289 288 288 288 288 287 287 287 287 287 288 287 287
271 274 276 275 278 281 281 281 281 281 279 278 278 278 278 279 278 277 276 275 276 273 274 277 280 279 282 285 285 284 286 286 286 285 286 286 287 287 287 287 288 287 287 286 286 286 287 287 287 287 287 287 288 288 287 287 288 288 289 289 290 289 288 289 288 287 287 286 286 287 288 288 288 288 288 288 287 287 287 287 287 287 288 287 287 287
273 273 275 275 276 278 278 279 279 279 279 279 279 279 278 278 277 277 278 279 278 277 279 279 277 278 282 285 286 287 287 287 286 286 287 286 286 286 286 286 286 286 287 286 287 287 287 287 288 288 288 288 287 287 287 288 288 287 287 287 288 288 288 288 285 286 286 285 286 287 288 288 287 287 286 286 286 287 287 287 287 287 287 286 287 287
275 271 272 275 276 278 280 280 279 278 277 277 278 278 279 278 278 279 280 280 279 281 282 282 280 280 284 285 287 288 289 287 287 286 286 285 286 286 285 285 285 286 287 287 288 288 288 287 287 287 287 287 287 287 287 287 288 288 288 289 288 287 288 285 286 286 286 286 287 288 287 287 285 286 285 285 286 287 286 286 286 286 286 286 287 286
277 272 280 271 271 274 277 278 277 276 276 276 279 279 278 279 279 279 279 279 279 279 281 281 280 280 285 288 287 288 288 287 286 285 285 286 285 285 285 285 286 286 287 288 288 288 288 287 287 286 286 287 287 287 287 288 288 288 287 287 287 287 288 285 286 286 286 287 287 287 286 285 286 285 285 286 285 285 285 286 286 286 286 286 286 286
277 271 271 269 272 273 273 276 277 277 276 276 277 279 278 277 275 277 277 279 278 278 278 277 276 278 284 286 284 285 284 283 284 285 285 286 286 285 285 285 286 287 287 288 288 288 287 288 288 288 288 288 288 287 287 288 288 287 287 288 287 288 286 285 285 286 287 287 286 286 286 286 286 285 285 285 285 285 285 285 285 285 285 285 285 285
274 272 274 271 274 270 271 274 276 276 277 280 279 280 280 279 279 278 279 280 281 282 279 276 279 285 286 284 283 283 283 283 283 284 285 286 285 285 285 286 287 287 288 288 288 288 288 288 288 289 289 288 288 288 288 288 287 288 289 288 289 286 285 286 286 286 286 286 286 286 286 285 285 285 285 285 285 285 285 284 284 285 285 285 285 284
272 272 268 270 273 267 268 271 273 275 276 276 285 281 281 279 280 279 279 280 281 283 282 283 286 286 284 283 283 286 286 287 288 289 287 287 287 287 287 287 288 288 288 288 288 288 289 289 288 289 289 289 289 288 288 287 287 289 289 287 286 285 286 285 286 285 286 286 286 286 285 285 285 285 285 285 285 285 284 284 285 285 285 285 285 284
273 272 271 269 271 271 272 274 275 273 278 284 283 281 281 281 281 283 284 283 283 283 284 284 285 286 287 287 287 287 287 288 289 288 288 288 286 287 287 288 288 288 289 289 289 288 288 289 289 288 288 288 288 288 287 287 286 287 286 287 286 286 286 285 285 286 286 286 286 285 285 285 285 285 285 285 285 284 284 285 285 285 285 285 285 285
273 272 269 272 267 269 272 269 272 274 279 284 284 281 281 281 280 281 282 284 284 284 284 283 285 287 287 287 288 288 288 287 286 287 287 288 288 288 288 288 289 289 289 289 289 290 289 289 289 290 290 290 288 288 286 287 288 286 287 286 285 286 285 285 285 286 286 285 285 285 285 285 285 285 285 285 284 284 285 285 285 285 285 285 285 284
277 274 271 271 269 271 267 266 278 279 283 285 282 282 280 280 280 281 281 283 283 285 285 284 285 286 286 286 287 288 285 283 284 288 287 289 289 289 289 289 290 290 290 290 290 290 290 290 289 290 289 288 288 287 287 287 286 286 286 286 286 285 285 285 285 285 286 286 286 285 285 285 285 285 285 285 284 285 285 285 285 285 284 284 284 285
276 275 272 275 272 268 272 269 270 270 273 280 283 283 281 281 282 281 281 285 284 285 286 286 285 286 286 286 286 285 284 283 285 288 286 286 288 288 288 289 290 290 290 290 289 288 287 288 288 288 288 288 288 287 287 286 286 285 286 286 286 285 286 285 285 286 286 286 286 285 285 285 284 285 285 285 285 285 285 285 285 285 284 284 285 285
272 273 272 274 271 268 269 268 267 269 280 282 284 284 283 281 281 282 281 281 286 285 286 286 286 286 286 286 286 283 284 282 285 289 289 288 287 287 287 288 288 289 289 289 289 290 290 289 288 288 286 285 286 288 287 285 284 284 285 286 286 286 286 286 286 286 286 286 286 285 285 285 284 284 285 285 285 286 285 286 286 286 283 284 284 284
271 267 269 272 268 268 265 267 271 271 279 282 282 283 282 279 282 284 277 277 282 284 285 285 286 286 286 285 284 282 284 283 286 291 287 288 290 288 287 288 288 287 287 288 287 288 289 288 286 285 285 286 287 288 286 285 284 284 285 286 286 286 286 287 288 287 286 286 286 285 285 284 284 285 285 285 286 286 286 285 285 284 284 284 283 283
270 269 269 273 268 271 276 270 265 274 281 283 283 283 280 281 283 277 277 286 284 285 284 285 286 287 286 285 284 284 285 290 293 295 291 285 285 286 285 285 288 289 290 289 290 289 288 288 287 287 288 289 289 288 286 284 284 285 286 286 285 286 287 288 287 287 286 286 285 285 285 285 285 285 285 285 286 286 285 284 284 284 283 283 283 282
266 264 267 266 267 271 269 270 273 275 283 284 283 285 283 283 275 278 287 285 284 284 285 285 287 287 286 287 285 288 291 291 291 290 289 290 289 289 288 288 287 287 287 287 288 287 287 287 287 287 286 286 287 287 286 285 285 286 286 285 286 287 288 287 287 286 286 285 285 285 285 285 285 285 286 285 284 284 284 284 283 283 283 282 282 282
275 271 269 268 267 265 264 267 270 273 281 285 284 283 283 281 284 288 283 284 283 284 285 285 285 288 286 286 287 288 289 289 289 289 289 290 289 289 290 289 288 288 289 288 287 286 285 286 287 288 288 288 287 287 285 284 285 285 286 286 287 288 287 287 286 286 286 285 285 285 285 285 285 285 286 285 284 283 284 284 282 283 282 282 282 282
278 275 267 267 274 271 269 270 275 283 284 286 289 284 283 288 291 285 286 290 285 283 284 285 286 287 287 288 289 288 288 288 288 289 289 288 288 289 289 288 288 287 287 287 287 287 285 286 287 287 288 288 287 287 286 284 285 285 285 286 289 287 286 286 286 285 285 285 285 285 285 285 285 285 285 284 284 282 283 283 283 282 282 281 281 281
281 283 280 279 278 278 276 278 284 282 284 288 291 291 290 291 292 288 285 289 290 290 285 284 290 289 287 287 287 288 288 289 290 292 291 292 291 290 290 290 289 289 288 288 289 288 286 286 287 287 287 288 286 286 286 285 285 285 285 288 288 287 286 286 285 285 285 285 285 285 285 284 284 284 284 284 283 282 283 283 282 282 282 281 281 281
281 284 280 281 278 281 284 284 286 285 284 285 289 291 290 287 288 287 288 288 289 291 290 290 291 291 289 287 286 287 287 289 290 291 291 291 290 290 290 290 289 288 287 287 287 287 287 287 286 285 286 287 287 286 286 285 285 285 286 288 288 287 286 285 284 284 285 285 285 285 284 284 284 284 284 284 283 283 284 283 283 282 283 281 281 281
280 281 281 278 278 280 281 284 287 288 291 289 288 290 290 290 290 288 286 287 289 291 291 290 290 290 290 288 287 289 290 290 289 289 289 290 290 290 290 290 290 290 289 288 288 287 287 286 286 286 286 287 288 287 287 286 286 286 287 287 287 286 285 284 284 285 285 285 285 285 284 283 284 284 284 283 282 282 283 283 282 282 282 282 282 281
281 282 282 281 281 283 285 283 285 289 290 288 289 289 289 291 292 291 290 291 291 291 290 291 291 289 289 288 288 289 289 290 289 289 290 290 290 290 290 290 289 289 289 288 288 286 286 286 286 287 287 287 289 287 287 287 287 286 286 286 286 286 284 284 284 285 285 285 285 284 284 284 283 284 284 284 283 283 283 283 282 282 282 283 282 282
283 283 279 279 282 284 284 285 288 290 290 290 289 289 291 292 292 292 291 290 290 289 289 290 290 290 290 290 290 289 288 289 289 289 289 290 289 289 290 291 290 290 289 289 288 286 286 287 286 287 287 287 289 288 287 287 288 287 286 286 286 285 284 284 284 284 284 285 284 284 284 284 284 284 284 284 283 283 284 284 284 283 284 285 285 285
282 281 281 279 281 282 283 284 284 284 287 289 288 291 292 293 292 291 291 290 289 288 289 289 290 290 289 289 289 289 288 289 290 289 289 289 289 289 290 290 290 290 289 289 289 287 287 286 287 287 287 288 289 288 287 287 288 288 287 285 285 284 284 284 284 283 284 284 284 284 283 283 283 283 283 283 283 283 283 283 284 285 285 285 285 284
286 284 283 284 283 283 287 288 291 291 291 292 293 292 291 290 289 288 288 288 288 289 290 289 289 289 289 288 288 287 287 288 289 290 289 289 290 290 290 290 289 290 290 290 289 288 286 286 286 286 286 287 288 287 287 287 288 288 287 286 285 284 284 284 284 284 284 284 284 284 284 283 283 283 283 283 283 282 282 283 284 285 285 285 285 285
Wind_Speed
1 11 7 2 1 4 3 1 3 2 1 1 1 1 3 3 5 3 1 2 4 3 2 2 3 4 9 8 8 5 3 3 5 6 5 3 1 2 3 3 4 4 5 4 5 5 5 6 5 4 4 4 4 3 3 4 4 3 2 3 5 4 4 4 5 6 6 7 8 5 6 5 7 7 7 8 8 8 8 9 9 9 8 8 8 7
5 12 6 2 2 3 4 3 0 2 1 0 1 1 3 0 4 2 1 3 6 4 3 1 6 10 8 7 7 4 1 6 6 6 6 4 3 4 4 4 5 5 5 5 5 6 6 6 6 5 4 4 5 5 4 4 4 4 3 3 4 4 4 3 3 3 3 1 2 3 5 3 6 6 7 7 8 8 8 8 9 9 10 10 9 9
11 7 3 3 2 0 1 5 1 2 1 3 1 1 1 3 6 7 2 4 4 3 5 3 8 11 10 8 6 4 5 3 5 6 5 5 4 3 3 4 5 5 5 6 5 5 5 5 6 5 5 5 2 4 4 4 4 3 3 4 4 4 4 4 2 1 2 2 3 2 4 4 5 3 2 3 4 5 7 8 9 9 10 10 9 10
7 2 4 1 0 2 2 5 4 4 6 6 5 4 3 2 5 5 3 6 9 2 3 5 6 9 8 4 2 2 4 3 3 3 5 3 3 4 5 4 4 4 5 5 6 7 7 5 5 5 5 5 6 5 5 4 4 3 3 4 4 4 3 4 3 1 1 2 2 2 3 4 2 4 4 4 5 7 7 8 7 8 8 9 9 9
5 1 1 2 3 2 1 4 7 4 1 2 3 3 1 3 3 4 6 8 7 1 1 6 2 3 5 5 5 3 1 1 2 3 4 4 4 4 4 5 4 5 5 6 6 6 5 6 6 6 6 5 5 6 6 5 4 3 4 4 4 4 4 4 3 3 3 3 5 5 4 1 4 2 5 5 6 7 6 7 7 7 7 8 8 8
3 1 0 1 3 4 2 3 3 2 3 3 0 2 1 2 4 5 6 7 6 1 3 5 4 1 4 6 6 7 4 3 2 3 7 7 6 5 5 6 6 5 5 6 6 6 5 6 6 6 6 5 6 6 6 5 5 4 4 3 3 3 3 4 4 3 1 1 2 5 6 8 6 6 7 8 7 7 7 6 5 6 6 6 6 7
2 1 4 0 2 3 4 2 1 1 1 1 0 3 1 1 2 2 6 2 3 3 4 3 5 3 5 2 3 4 5 7 7 5 8 6 6 5 5 5 5 6 6 5 5 5 5 6 5 7 5 5 5 7 5 5 5 5 4 3 3 3 3 4 4 3 2 1 1 0 1 1 1 3 4 3 3 4 5 3 4 5 5 5 6 6
2 5 6 5 6 4 4 5 1 2 2 1 1 3 1 1 0 2 1 2 0 1 3 5 3 1 4 6 2 4 3 6 7 6 6 5 5 6 5 5 5 6 5 5 6 7 6 6 5 7 7 5 7 6 5 5 5 5 6 5 4 3 3 3 3 3 3 2 1 1 2 1 2 2 4 5 5 4 3 5 4 4 4 4 4 5
3 3 4 5 4 4 2 2 1 2 1 1 2 4 1 1 1 1 1 1 0 0 1 3 2 1 3 7 4 3 3 4 5 6 6 6 5 6 6 7 6 6 6 5 6 7 7 7 7 6 7 6 5 6 5 5 6 5 5 5 5 5 3 3 3 3 4 4 3 2 2 4 4 3 4 4 3 4 3 4 4 4 3 3 3 3
1 1 1 2 3 4 3 1 2 4 1 1 1 2 1 1 2 1 1 2 1 2 1 2 2 1 6 6 5 2 1 5 4 3 5 5 5 6 6 6 6 6 5 5 7 7 8 8 7 6 5 7 7 6 4 5 5 5 5 5 5 8 6 2 2 3 4 4 3 3 3 4 5 4 5 3 5 4 3 4 5 4 4 3 3 3
0 3 4 3 1 1 2 3 2 3 1 2 2 1 2 3 1 2 3 2 2 1 2 1 2 1 3 4 5 3 3 3 2 3 4 4 4 5 5 6 6 5 5 6 5 6 7 7 7 6 6 7 7 5 4 6 5 5 5 5 6 8 6 5 4 1 3 4 4 4 4 5 5 5 4 5 7 6 5 4 5 4 5 4 3 3
1 1 0 1 1 2 1 2 1 1 0 0 0 1 2 1 3 1 3 3 1 2 2 1 0 1 1 3 6 7 3 4 4 3 3 3 4 4 5 5 6 5 6 6 5 7 6 8 7 4 6 6 6 6 7 5 5 5 5 4 6 9 7 5 5 4 4 3 4 5 5 5 5 5 4 4 5 5 5 5 6 5 4 4 5 3
1 1 3 6 1 3 2 1 1 2 3 6 3 5 1 4 5 2 6 3 1 0 0 0 0 1 6 8 2 2 7 5 6 5 6 4 4 5 5 6 6 5 5 5 6 5 6 5 7 6 7 6 6 6 6 7 5 5 5 5 5 9 8 7 4 5 6 4 4 4 5 5 5 5 5 5 5 5 4 5 5 6 6 6 5 4
2 3 4 5 3 0 2 4 6 2 3 7 4 2 4 4 4 1 4 2 4 5 2 0 0 2 4 6 6 6 7 7 6 6 5 5 5 5 6 6 5 6 5 6 6 5 6 6 6 6 6 6 6 6 7 6 5 5 5 5 4 9 7 6 6 6 5 6 6 4 4 5 5 5 5 6 6 6 6 6 6 6 6 6 6 5
2 2 2 3 1 3 3 2 1 2 2 2 1 0 3 5 1 1 1 1 2 6 5 4 1 3 4 2 1 8 4 4 5 4 4 5 6 6 6 7 8 7 7 5 5 6 6 7 6 6 6 6 6 7 7 5 6 4 6 5 6 8 9 6 6 5 6 7 6 5 4 5 4 6 6 7 6 6 6 5 6 6 6 6 7 6
0 4 1 1 2 1 2 0 1 1 0 3 1 2 5 1 2 0 2 2 2 4 7 1 4 3 4 2 3 1 3 4 3 5 4 6 5 4 7 8 8 7 7 6 5 6 7 7 6 5 5 6 5 6 6 6 6 5 6 5 6 7 9 7 6 6 6 7 6 5 5 6 5 4 4 5 5 6 6 6 7 7 6 7 7 6
3 0 1 6 3 2 1 0 1 0 1 1 2 2 1 2 2 3 1 1 1 3 7 1 8 5 7 2 2 5 4 6 4 6 5 6 6 5 7 8 7 7 6 6 6 6 7 6 5 6 5 5 5 5 6 7 6 6 6 5 6 7 6 7 6 6 5 6 5 8 6 6 5 5 6 7 6 6 5 6 7 7 7 6 6 6
1 5 2 2 0 1 1 0 1 0 1 1 4 2 2 2 3 2 1 3 4 1 3 3 3 9 5 2 2 2 5 9 6 7 6 6 6 6 8 8 8 7 6 6 7 7 7 7 8 7 6 5 6 6 6 7 5 4 5 5 6 7 7 8 6 6 5 5 6 7 7 7 6 6 6 6 7 5 5 6 6 5 6 7 7 6
1 2 1 0 1 5 2 0 2 0 0 2 2 2 1 1 1 4 2 4 4 3 6 7 3 7 4 5 1 3 5 7 7 6 4 7 6 7 7 8 9 7 6 6 6 6 6 6 7 7 7 7 5 6 6 7 6 5 5 5 5 8 7 7 7 5 6 4 5 5 7 7 7 5 6 6 6 5 5 7 7 6 8 6 5 6
1 0 3 0 0 3 2 1 1 2 2 1 1 1 1 3 2 2 0 2 4 5 7 7 4 3 5 4 6 3 7 6 6 4 5 8 8 7 7 7 8 8 8 7 7 7 7 7 7 7 7 7 7 6 6 5 5 6 6 5 5 5 6 6 7 6 7 6 4 7 6 7 6 7 6 6 5 6 7 8 7 7 6 9 5 6
1 0 1 1 2 2 0 2 1 1 1 1 1 2 1 2 1 2 1 1 1 2 1 1 9 7 6 5 5 5 4 6 6 5 5 6 7 8 7 8 8 8 8 8 8 7 7 8 7 7 6 6 6 5 5 5 6 6 5 5 5 6 7 6 7 5 7 5 6 5 7 8 6 7 7 6 6 7 8 8 7 7 7 4 7 6
1 0 2 4 4 0 2 0 1 0 1 0 0 1 3 1 1 1 3 1 2 1 2 1 10 9 11 3 6 4 6 5 7 5 6 7 7 7 7 7 7 8 9 9 9 7 7 7 7 7 6 5 4 6 6 6 4 5 6 6 5 4 6 6 8 6 7 5 6 6 7 8 6 6 6 6 7 7 8 8 8 7 5 6 8 5
1 1 1 5 3 1 1 1 0 0 1 1 1 0 2 2 5 4 0 2 1 1 3 2 0 12 7 3 4 5 5 5 5 3 6 7 8 8 8 8 9 7 9 10 9 8 7 6 7 6 6 7 7 7 6 6 5 6 6 6 5 5 8 6 8 6 5 6 6 7 7 7 7 6 6 6 7 7 8 8 7 6 6 8 8 5
3 1 3 5 2 2 2 2 0 1 0 1 1 0 1 1 3 4 2 4 4 1 1 1 2 12 8 2 4 5 6 6 6 5 8 9 8 8 8 10 10 9 9 7 8 8 8 6 5 5 6 6 6 5 6 6 6 6 6 7 6 6 9 7 6 6 5 6 7 8 6 7 7 6 6 6 7 7 8 7 7 5 6 7 6 8
0 1 2 3 5 4 1 1 1 1 1 1 2 2 2 2 5 3 4 1 0 7 7 8 7 8 3 1 3 2 3 4 7 7 6 8 8 9 10 9 8 8 9 9 10 9 8 8 7 6 6 6 7 6 6 6 6 6 7 6 6 8 7 7 6 5 6 6 7 7 7 7 6 6 7 8 7 8 8 7 7 5 6 6 7 7
0 2 1 1 1 3 5 5 3 2 3 3 1 0 2 5 7 2 1 1 2 2 4 3 8 12 7 6 6 5 4 8 8 7 5 7 9 10 9 9 9 7 9 9 9 9 9 8 7 8 7 6 7 6 6 7 6 7 7 8 7 7 7 8 6 5 5 5 6 7 7 7 6 7 8 8 7 8 8 7 5 6 6 5 7 7
1 0 2 5 6 7 8 4 1 2 1 2 2 3 4 2 1 4 5 4 7 3 7 13 8 11 17 17 8 7 5 7 11 12 11 11 10 9 7 8 8 8 9 10 9 9 8 8 10 9 7 8 8 7 6 6 7 7 7 8 8 7 7 8 6 6 5 5 6 6 7 7 7 7 7 7 7 6 5 6 6 6 8 6 6 7
2 1 5 5 7 10 5 5 3 2 5 5 5 5 6 7 7 7 8 8 6 7 9 6 9 7 18 18 12 10 10 9 9 8 9 9 8 9 10 10 12 11 10 8 8 9 9 9 9 9 9 8 9 8 7 7 7 8 7 8 7 6 5 6 5 5 5 5 5 6 8 7 7 6 6 6 5 6 6 6 7 7 7 5 7 7
2 2 2 3 7 8 9 10 5 3 5 6 7 6 8 9 8 12 14 8 9 7 14 2 3 5 16 14 15 14 15 12 10 11 9 8 9 10 9 9 10 11 11 10 10 9 8 9 9 9 9 9 8 9 8 7 8 6 6 7 7 6 7 7 5 5 5 5 6 7 7 6 5 4 5 5 5 6 7 7 7 7 6 6 7 7
1 3 2 1 6 7 11 10 4 6 4 5 12 12 11 10 15 17 16 9 13 15 16 14 9 16 20 20 21 21 15 9 10 7 7 8 11 9 7 8 9 10 11 11 11 10 9 9 9 10 10 10 10 10 9 7 8 8 8 7 6 6 8 4 5 5 6 6 7 6 6 6 5 5 4 5 6 7 7 7 7 7 6 7 7 7
1 4 2 1 3 7 6 4 0 3 3 8 12 10 10 12 12 14 9 8 8 14 19 19 15 20 23 19 14 16 13 9 9 11 11 10 8 7 7 9 10 10 11 11 11 11 10 10 9 9 9 11 11 11 9 8 8 8 8 8 7 7 8 4 5 5 6 8 6 6 6 5 6 5 5 6 5 6 6 7 6 6 7 7 6 7
1 3 2 2 3 6 3 3 5 3 5 9 19 15 10 10 9 9 11 11 9 15 8 3 8 14 21 8 4 8 8 7 9 11 10 9 6 6 7 9 9 10 11 11 10 9 10 10 10 10 10 10 10 10 9 9 8 7 8 8 7 8 6 5 5 6 7 7 7 6 6 6 6 6 6 5 6 6 6 5 5 6 7 7 7 8
4 2 1 0 1 6 4 2 6 8 8 9 10 11 11 12 6 1 5 3 13 8 4 7 13 13 9 1 4 7 6 8 8 10 10 10 8 7 8 10 10 10 11 10 11 10 10 10 10 10 11 9 10 10 10 9 7 9 10 8 9 5 5 6 6 7 8 7 6 7 7 6 7 7 7 6 6 6 5 5 6 7 7 8 7 5
3 3 1 1 1 4 4 7 3 4 5 6 1 3 7 8 13 12 9 13 13 12 11 9 14 9 7 6 7 12 10 12 11 11 6 6 8 9 10 11 11 12 11 11 11 11 11 9 9 9 10 10 11 10 10 7 8 10 9 8 6 5 7 6 7 6 8 7 7 7 7 6 6 8 8 7 6 6 6 6 7 7 6 6 6 7
4 3 2 1 1 5 6 6 2 2 9 2 1 4 5 4 10 14 16 8 10 15 17 16 19 19 19 14 11 12 13 15 12 13 13 9 8 10 13 14 13 13 13 12 11 11 11 11 10 9 10 10 11 9 6 8 8 9 8 8 8 6 7 7 7 8 8 8 7 6 7 7 6 8 8 7 6 6 7 7 7 7 7 6 7 7
6 5 3 0 2 1 1 1 1 7 5 11 8 2 2 2 2 2 14 12 17 17 19 18 23 20 16 14 12 12 12 11 10 12 12 15 14 14 13 13 14 12 12 12 12 13 11 10 11 11 11 9 7 8 6 9 8 6 9 6 7 8 7 7 7 9 8 8 7 6 7 7 7 7 7 7 6 7 8 8 7 8 6 5 6 6
7 3 3 2 1 3 3 2 9 9 13 8 2 1 5 3 6 3 4 8 12 10 14 15 18 15 14 15 15 13 5 5 8 14 7 14 14 12 14 15 13 13 12 12 10 13 11 10 9 11 9 8 8 8 9 8 6 7 8 8 8 7 8 7 8 9 9 8 7 7 6 6 7 8 8 7 7 8 8 8 9 7 4 5 7 7
0 5 4 3 3 3 2 4 5 3 3 8 4 2 3 3 5 4 3 12 4 10 11 14 12 15 13 11 11 7 1 4 11 12 7 9 11 10 10 11 11 10 10 11 9 8 8 9 8 9 9 11 11 10 8 6 6 6 7 9 8 8 10 8 10 9 8 9 8 7 6 7 7 8 8 7 8 9 9 8 7 7 4 6 7 8
4 4 2 6 2 3 2 3 3 2 9 4 4 5 3 2 4 1 2 8 7 9 10 13 14 13 11 9 8 3 1 4 13 12 7 7 9 9 10 11 12 12 11 11 11 12 11 10 10 10 7 8 11 13 8 6 5 5 9 9 9 9 10 11 11 9 9 9 7 6 6 7 7 7 8 8 10 8 9 8 8 7 4 6 5 8
3 1 1 0 3 4 4 2 6 5 9 4 4 3 4 3 3 2 5 7 5 8 10 10 12 11 10 10 5 4 7 8 12 13 5 10 10 9 9 10 9 10 11 11 10 11 13 10 6 7 8 10 14 12 7 6 5 6 8 10 8 10 12 13 12 9 7 7 7 6 6 6 7 8 8 9 10 9 9 7 7 7 6 7 6 7
2 1 2 9 2 5 7 6 4 8 11 6 6 4 3 3 1 2 7 11 6 7 8 10 11 12 8 6 7 8 12 15 14 14 7 3 1 6 7 8 10 10 11 10 12 9 8 10 9 11 12 11 11 9 6 5 5 8 9 9 9 13 15 12 9 8 8 7 7 6 7 7 7 9 9 8 9 8 8 6 7 6 6 7 7 6
1 2 1 2 3 8 6 5 8 7 12 8 2 10 6 4 1 9 10 3 5 6 7 12 12 12 9 11 9 12 13 13 14 11 11 12 12 11 9 10 10 10 11 11 12 10 11 11 11 10 10 10 12 11 8 6 8 10 9 8 13 17 11 8 9 8 7 8 8 7 7 8 8 8 9 7 7 7 9 7 6 7 6 6 6 7
11 8 7 6 3 4 2 1 3 5 4 7 11 4 1 4 10 7 3 3 5 4 7 8 10 13 7 10 12 14 14 13 12 14 13 14 12 13 14 11 11 12 13 11 10 10 10 10 13 14 13 10 8 8 7 7 10 11 10 11 17 13 7 8 8 8 8 8 8 8 8 8 8 9 7 7 7 7 9 7 6 6 6 6 6 7
7 3 2 5 8 7 7 8 9 12 4 13 17 9 9 17 9 6 3 6 4 7 5 6 8 12 10 12 13 12 13 13 14 14 14 12 13 14 13 12 12 11 11 11 11 12 7 10 12 13 13 11 8 8 8 8 11 11 11 16 16 8 7 8 8 7 8 8 9 8 8 8 8 8 8 8 7 6 8 8 7 7 7 6 7 7
13 9 9 7 7 8 11 12 13 5 7 15 15 9 10 19 16 7 4 7 8 10 5 4 10 11 11 13 13 12 12 12 16 16 14 18 15 15 15 15 13 13 12 12 13 10 7 11 14 13 14 12 9 8 9 9 11 13 15 16 11 9 8 8 7 7 9 9 8 9 8 7 8 8 8 7 6 7 8 8 6 8 7 6 7 7
3 7 1 1 6 8 10 5 5 3 9 12 14 13 11 5 7 7 9 10 10 13 7 9 12 12 10 9 10 10 12 15 15 16 16 16 15 16 15 15 14 12 11 10 11 12 11 11 11 12 15 16 12 10 9 10 11 15 17 13 11 9 8 7 7 9 11 9 8 9 7 8 9 8 9 8 7 8 8 8 7 8 7 6 7 7
5 3 3 3 2 1 13 6 16 21 24 13 14 19 15 12 13 7 6 11 14 13 12 10 13 15 14 10 9 16 17 14 15 16 15 16 17 18 18 17 16 15 14 14 14 10 10 9 12 13 14 17 15 9 10 10 12 15 13 12 12 9 7 8 9 10 10 10 9 8 7 9 9 8 8 7 7 7 7 7 7 7 8 8 7 7
7 6 7 5 5 11 13 6 10 16 17 7 8 11 13 19 20 17 15 16 15 14 12 15 15 14 12 12 15 17 19 16 15 18 17 16 16 16 16 16 16 15 13 13 13 8 10 11 13 15 14 16 17 9 10 11 12 12 12 11 11 9 7 9 9 10 11 11 9 8 7 8 10 10 8 8 7 8 7 7 8 9 10 10 9 8
5 8 7 7 10 12 9 8 16 23 27 22 16 16 18 17 16 17 14 15 16 15 16 17 16 18 16 17 17 15 17 19 17 19 19 17 15 15 16 17 16 15 14 13 12 8 13 12 14 15 15 17 15 10 10 12 13 11 10 11 10 8 9 11 10 10 12 11 8 9 8 8 8 8 8 8 7 8 9 9 8 10 10 10 8 8
6 9 3 2 9 13 15 8 4 8 20 10 13 22 22 20 18 19 16 14 13 14 17 19 20 16 15 15 16 16 17 19 19 16 20 18 16 17 17 17 17 16 15 15 12 10 11 13 14 16 15 17 15 10 10 12 13 13 8 8 8 8 10 11 9 9 11 10 9 9 8 8 8 8 8 9 9 8 9 10 13 11 10 10 10 14
15 9 8 13 11 18 12 8 14 19 22 25 17 12 12 8 8 12 16 14 13 16 19 19 20 18 15 16 13 14 17 18 21 19 19 17 17 17 16 16 17 17 17 17 15 13 10 13 12 13 16 17 13 12 11 12 13 13 9 7 8 9 10 9 9 9 10 9 10 10 9 8 8 8 8 8 8 8 8 8 8 14 19 18 15 12
Wind_Direction
40 74 60 92 302 306 284 251 242 224 188 170 150 151 238 249 286 274 260 310 339 320 253 256 306 289 286 277 277 273 275 228 269 279 278 278 285 298 306 296 284 287 255 288 296 283 289 299 302 305 311 320 315 308 327 326 321 311 293 332 327 309 320 350 355 350 353 349 343 350 355 333 329 332 346 347 350 355 359 360 1 3 7 4 5 16
70 69 16 275 244 241 273 296 262 104 119 173 150 195 311 166 324 244 255 356 335 47 289 15 333 298 283 287 271 282 154 228 229 249 269 258 264 265 263 276 273 259 299 331 342 321 326 319 319 325 325 341 352 318 330 321 303 290 302 309 299 313 325 334 326 318 326 320 321 280 288 308 304 335 355 344 347 348 346 359 4 5 2 4 9 4
44 72 309 284 247 166 52 10 65 132 117 21 205 261 20 321 270 291 274 336 340 8 264 357 343 302 307 296 294 240 205 242 216 205 214 204 248 272 275 277 285 316 306 324 292 288 285 306 311 319 313 312 292 284 290 281 307 312 308 297 296 293 307 310 287 317 329 305 330 22 298 317 309 272 311 315 307 334 350 357 2 5 2 3 7 6
56 348 320 270 100 32 360 18 52 56 62 41 18 45 327 285 21 320 294 344 342 48 281 324 313 295 313 305 319 275 206 269 268 228 256 201 211 230 239 243 281 293 295 296 278 278 295 296 295 309 314 311 319 313 318 318 311 299 297 296 296 292 289 298 302 273 260 261 290 304 288 301 257 272 319 338 337 354 2 7 2 7 5 2 4 5
127 284 261 74 55 94 57 357 44 47 23 354 85 111 27 338 311 203 282 333 309 8 63 316 51 325 354 356 332 338 336 322 331 342 304 292 256 265 302 309 233 249 264 266 288 292 302 318 306 292 284 303 310 312 305 299 295 278 281 279 270 274 276 271 282 292 311 341 352 344 333 337 346 357 350 358 355 356 352 356 6 356 5 7 8 5
42 270 235 40 42 51 81 24 30 85 22 322 252 142 119 227 264 288 299 338 17 351 9 19 33 313 307 298 255 285 342 324 331 353 287 277 294 318 302 277 296 278 235 236 261 272 282 283 297 306 304 306 304 303 293 288 281 276 281 274 275 267 267 264 264 251 306 54 46 6 6 351 357 343 348 0 344 340 351 338 312 346 4 8 13 14
139 339 73 50 107 63 67 96 235 93 109 76 270 164 163 215 207 296 333 12 25 52 329 34 94 273 330 332 295 311 335 299 313 307 280 295 292 294 272 276 279 279 296 294 275 281 298 295 308 298 294 281 287 279 284 299 297 293 276 257 241 250 251 259 258 242 199 352 44 90 205 228 285 314 285 283 295 307 313 321 347 338 345 6 17 10
14 350 22 36 50 54 43 27 218 120 96 327 150 138 120 96 9 340 58 62 183 291 303 39 72 185 311 295 260 292 315 308 321 314 318 301 293 287 284 284 279 276 263 266 280 285 278 272 261 272 278 281 262 271 300 294 295 294 296 300 288 249 245 247 252 241 210 220 216 314 317 295 290 264 271 302 304 303 310 332 341 338 347 349 10 15
76 342 26 5 48 51 57 237 264 161 182 244 169 145 270 191 182 95 63 36 202 43 336 325 334 77 262 265 309 357 345 330 303 292 293 300 296 284 289 285 277 264 260 261 273 273 274 277 276 266 274 270 281 276 267 277 282 288 288 299 302 297 261 242 244 233 230 209 191 206 221 297 281 255 264 289 300 314 334 338 332 348 330 344 350 11
335 136 223 120 76 359 263 267 190 154 18 288 128 117 66 78 75 85 75 52 345 66 307 298 329 41 292 276 340 325 280 273 255 257 274 277 280 281 282 282 275 274 269 257 243 256 269 267 267 264 279 291 270 272 277 278 282 281 291 297 308 301 303 282 230 234 236 216 187 178 207 235 280 303 305 323 311 315 333 333 323 327 335 338 341 350
247 292 172 81 34 233 279 260 182 203 211 121 71 63 351 26 45 22 61 75 50 41 270 230 306 98 292 262 222 160 219 199 235 296 279 288 294 279 254 246 255 261 268 273 273 270 266 270 269 278 275 270 289 286 290 285 278 283 289 288 298 283 292 296 296 214 231 226 203 211 210 219 244 263 280 309 315 321 332 327 310 319 317 313 319 326
359 351 14 261 21 328 77 340 56 101 19 129 74 93 45 329 16 36 348 28 83 281 257 282 110 70 178 293 281 234 260 208 171 199 238 269 266 261 269 269 258 251 256 269 280 285 293 311 303 303 292 288 289 304 295 284 285 283 278 285 289 292 286 288 291 307 276 213 222 220 215 220 225 226 231 243 261 276 292 296 300 300 317 319 320 321
23 359 291 317 166 64 336 48 317 26 17 72 73 43 97 287 33 333 11 8 358 209 209 50 159 19 240 224 227 262 229 238 220 192 203 221 253 265 267 258 252 256 271 272 273 282 292 283 287 297 291 298 295 288 288 283 284 284 282 271 275 281 286 285 285 283 287 288 249 215 220 228 227 222 219 225 237 241 248 261 282 300 302 306 325 310
274 309 352 311 2 325 61 70 328 22 326 20 51 17 61 31 37 359 283 225 307 297 261 169 120 245 248 287 230 234 238 215 213 220 218 203 227 246 258 272 284 283 269 269 272 274 266 264 267 268 274 280 283 281 278 281 281 277 280 282 264 272 279 285 293 282 283 275 272 246 226 227 220 229 222 227 223 235 222 226 237 244 252 271 266 273
42 348 335 23 9 355 53 88 161 216 326 274 199 136 142 128 133 335 234 309 246 248 278 275 39 237 7 210 239 220 261 295 271 266 263 262 258 265 282 288 281 280 278 266 271 266 263 262 253 262 271 276 277 278 280 280 274 274 278 276 274 281 282 278 275 288 284 281 276 264 244 239 220 228 227 232 223 226 224 223 227 236 236 235 253 247
197 224 293 325 248 359 40 288 115 109 267 255 181 117 55 10 152 82 217 170 286 335 333 233 209 184 190 252 285 283 322 307 315 299 323 294 284 306 305 288 276 274 275 279 276 280 272 256 262 263 263 263 267 273 277 275 272 271 264 265 264 261 277 285 286 276 269 277 285 280 267 256 239 240 237 246 236 236 221 229 217 234 229 232 236 244
21 43 318 314 21 67 299 307 11 198 57 315 51 34 181 163 96 77 56 44 71 51 256 216 317 304 295 9 322 341 338 289 316 293 292 273 285 317 283 275 274 268 269 273 262 260 275 285 271 251 257 267 268 271 266 267 262 258 269 271 274 275 277 276 272 273 271 272 281 281 276 269 255 243 242 247 250 240 232 228 232 232 236 233 232 239
155 257 295 65 357 340 230 190 254 253 165 29 55 237 112 127 119 120 263 334 56 90 264 33 278 305 20 282 317 326 300 278 281 272 267 283 283 287 271 273 273 273 271 271 269 265 263 267 273 278 268 250 253 260 275 276 270 250 253 253 261 277 280 280 275 274 269 269 273 276 279 274 257 250 250 245 251 247 241 247 244 246 253 239 232 224
86 351 318 11 204 283 1 358 341 336 150 127 130 195 68 317 4 327 90 7 347 332 298 309 289 254 193 253 334 257 237 263 262 269 309 282 281 264 271 281 284 286 293 287 282 283 281 271 269 269 271 275 265 256 254 271 283 283 263 250 237 256 261 268 282 279 278 255 260 263 267 271 276 261 253 251 247 246 239 249 245 239 244 258 246 238
5 155 297 302 126 316 339 67 282 294 340 37 15 32 329 100 145 36 113 169 118 283 16 295 22 268 212 225 187 207 224 239 258 292 252 246 247 257 263 269 277 285 286 284 278 273 267 270 266 266 271 279 284 290 283 277 287 284 274 270 260 261 268 279 274 270 274 269 249 263 266 268 259 266 260 258 251 247 244 251 250 246 247 246 248 239
192 105 263 277 304 315 240 357 182 166 230 324 33 346 9 57 241 104 42 95 176 178 185 273 327 285 266 214 175 217 222 229 207 230 251 250 253 250 250 260 271 273 274 274 269 270 270 269 274 274 265 264 276 269 273 273 272 273 287 276 264 259 274 266 264 265 261 267 265 256 263 265 262 259 252 258 249 251 256 257 254 251 247 257 245 232
80 35 222 305 360 312 234 169 237 120 293 247 143 155 166 120 25 53 287 7 63 80 238 120 269 276 276 180 208 209 243 232 230 213 245 256 256 260 270 274 261 268 273 267 270 267 267 268 270 275 281 276 276 283 284 276 265 275 269 259 265 257 255 259 271 252 257 254 252 257 258 260 260 258 260 256 259 252 257 258 256 256 261 244 258 227
128 157 80 287 211 234 260 305 331 270 136 203 157 285 135 108 104 98 118 276 23 258 104 151 303 273 242 218 217 238 255 241 252 224 253 266 268 272 272 273 281 261 260 273 273 272 266 262 263 269 277 283 279 276 277 280 270 263 268 271 257 235 260 237 247 255 248 253 255 254 253 258 263 261 260 259 262 261 260 260 262 256 252 257 262 255
103 67 3 278 317 309 319 302 323 69 105 345 256 270 106 164 180 174 177 175 138 139 117 11 236 253 280 223 224 239 254 272 273 229 250 272 275 274 279 290 289 293 286 277 276 274 269 271 276 280 281 281 283 278 274 269 271 268 263 259 261 251 253 258 244 245 244 247 252 252 259 256 255 259 258 256 256 257 260 259 260 254 249 254 261 265
50 294 114 321 357 340 342 350 4 334 66 196 225 213 174 84 78 128 97 38 283 218 172 133 235 274 270 307 295 249 285 290 273 266 217 259 278 279 284 285 283 281 285 287 286 286 299 302 294 286 283 277 276 278 274 274 271 268 268 266 254 255 255 255 256 246 248 243 253 261 254 258 255 253 256 252 255 254 258 260 261 262 256 260 262 258
131 212 105 47 12 349 320 322 291 295 245 230 217 151 233 137 137 115 230 42 217 278 137 179 252 251 274 306 299 295 313 299 283 276 258 217 247 273 288 290 293 293 287 287 289 297 293 289 292 290 279 277 269 262 272 274 270 269 267 265 254 253 260 255 251 243 249 252 249 258 258 257 258 251 250 253 256 255 257 261 263 263 264 245 256 262
157 357 185 156 163 201 214 209 228 108 36 212 237 166 209 201 161 93 96 110 210 205 194 238 221 299 300 283 274 283 285 267 286 298 301 305 303 297 288 288 290 291 291 291 292 291 298 293 279 272 276 270 272 270 264 261 267 265 262 268 266 248 245 256 254 255 247 252 247 258 258 258 254 252 253 253 254 259 261 260 259 257 259 255 247 254
66 294 240 194 232 236 235 256 196 140 246 247 238 235 203 182 177 155 168 218 166 89 280 240 246 244 263 278 291 298 292 283 272 271 284 290 287 289 293 300 300 300 294 295 295 292 288 284 283 281 275 277 272 273 275 268 257 259 261 261 267 262 252 255 245 254 254 250 255 249 257 254 254 257 255 257 261 259 258 258 259 256 257 256 256 251
149 190 274 134 260 250 258 263 258 264 226 245 228 220 203 198 178 196 224 199 147 187 237 240 145 214 261 265 277 280 273 271 276 278 275 271 281 286 292 295 296 294 297 298 291 290 289 285 280 280 280 273 277 278 276 280 281 274 266 258 261 267 258 254 256 261 256 258 253 255 253 260 261 256 257 257 258 260 260 259 260 262 260 255 254 252
95 260 223 177 278 287 278 264 239 221 266 259 250 236 225 193 209 212 228 204 196 231 247 272 273 265 270 276 274 273 280 282 278 278 281 281 270 274 285 283 284 287 290 292 291 291 288 279 278 275 278 282 276 275 275 276 274 271 270 274 269 262 264 251 253 258 264 255 257 260 258 260 264 264 261 260 257 258 261 263 265 266 265 260 255 257
117 281 89 48 338 285 278 329 136 198 196 265 261 240 219 213 226 226 237 240 230 265 263 262 275 278 273 259 268 279 282 288 298 283 267 266 273 272 275 277 277 277 279 283 287 286 285 284 280 279 279 274 273 268 268 268 272 276 277 270 269 266 265 247 260 261 262 268 266 266 271 271 268 261 259 254 258 261 262 264 264 267 267 267 264 261
48 254 48 66 348 295 319 19 315 290 245 249 277 268 208 194 215 219 206 213 179 226 234 242 263 258 261 282 236 264 277 274 264 269 278 271 261 265 263 266 270 276 279 279 281 283 286 285 284 284 280 279 274 269 271 276 274 278 272 270 267 260 268 269 263 264 267 266 274 273 271 271 271 268 263 258 258 256 257 261 263 266 266 269 271 266
178 143 160 269 307 259 267 349 326 321 318 298 267 250 200 199 200 326 264 230 215 191 180 209 237 231 262 270 268 272 244 264 264 257 263 273 266 251 255 263 270 272 271 276 276 274 268 266 269 275 280 278 272 266 262 263 280 275 269 268 260 273 274 265 264 269 270 269 269 271 269 269 272 271 272 263 258 260 263 261 264 264 266 266 263 271
120 125 148 184 209 256 288 323 306 355 332 244 239 163 144 175 195 220 229 209 217 178 218 209 244 276 282 265 237 266 275 263 259 263 222 234 271 279 275 268 267 264 266 263 258 258 263 262 259 260 261 266 269 259 257 266 262 266 269 272 280 272 265 262 268 259 266 268 264 266 268 268 268 271 270 270 268 266 266 263 261 260 258 267 275 268
154 134 198 139 168 277 314 343 35 284 247 241 275 198 182 153 174 213 246 223 216 217 240 262 262 259 257 255 257 262 262 269 275 276 282 264 243 246 253 260 256 254 252 253 255 251 248 248 257 266 270 268 262 259 261 270 255 262 276 272 276 264 264 265 265 270 266 266 264 260 265 265 262 266 271 271 269 270 267 262 266 266 262 259 261 265
159 150 169 259 173 342 6 56 19 237 259 278 281 302 180 97 170 236 278 234 224 216 216 233 248 253 263 272 270 257 258 278 295 275 259 263 246 240 245 248 251 246 244 238 233 240 238 239 243 252 259 258 261 257 241 252 262 266 263 265 260 272 262 262 266 266 270 267 262 254 255 258 264 264 267 269 269 267 268 266 259 262 265 263 266 261
154 103 121 263 183 217 202 173 241 320 318 315 35 196 160 167 180 157 308 288 204 212 202 223 245 256 260 259 256 265 299 325 294 284 221 234 247 234 227 239 241 244 241 247 230 236 232 235 242 249 255 263 254 256 255 252 254 259 272 278 271 266 268 264 264 264 265 266 263 254 250 250 256 261 264 263 264 265 265 267 270 265 244 260 264 270
91 160 227 153 264 128 175 317 336 3 301 277 232 292 246 215 162 181 100 297 222 225 197 206 228 242 246 255 261 268 26 347 296 279 262 238 239 242 240 243 253 257 258 259 262 254 250 249 254 260 253 261 266 257 254 256 257 269 278 277 276 275 274 263 261 261 263 264 262 253 246 245 244 252 258 260 257 259 262 262 265 266 252 249 268 272
18 81 128 148 211 56 94 165 221 193 250 200 219 209 228 189 142 168 33 272 265 205 199 196 220 235 229 233 248 109 121 276 265 271 256 235 242 224 231 237 235 243 251 250 250 260 259 246 238 248 253 256 264 264 250 248 246 260 267 270 272 270 272 268 264 261 257 259 257 249 239 240 241 244 249 254 258 254 258 259 259 264 260 253 255 262
55 346 41 136 225 200 140 152 243 206 251 259 221 216 213 128 136 63 350 270 259 216 197 184 217 227 231 231 196 161 192 239 264 270 218 217 214 216 204 231 243 245 248 249 254 250 262 275 285 272 252 250 253 258 255 245 239 245 257 264 264 267 264 262 259 260 256 256 254 246 240 234 238 243 243 249 258 258 252 256 264 261 259 263 252 265
172 265 157 218 179 205 188 261 332 283 267 229 190 204 123 164 93 57 246 245 239 208 194 185 217 226 219 217 165 213 219 219 241 262 251 195 253 267 245 240 245 250 257 258 255 257 265 263 246 250 251 253 262 268 251 236 241 253 252 255 261 259 256 258 263 260 255 253 252 246 241 239 232 244 246 242 250 258 264 252 253 262 256 264 267 266
309 114 312 83 207 201 194 200 237 267 255 195 234 156 164 107 178 217 232 211 161 205 211 192 215 231 216 215 205 219 241 232 244 262 280 269 250 255 250 242 250 259 253 251 258 263 264 269 268 259 255 245 251 259 257 237 244 250 251 251 252 253 257 258 254 253 254 251 250 248 245 243 243 238 246 251 246 257 261 257 245 250 253 257 262 266
184 147 199 186 192 68 75 153 333 292 285 127 127 71 250 168 232 213 224 266 200 219 185 212 215 244 200 238 229 234 246 258 258 258 257 265 268 265 263 256 245 247 255 257 254 236 230 258 265 265 262 253 237 243 236 217 238 247 247 247 252 255 251 247 248 248 248 250 250 248 247 246 244 246 242 248 237 240 255 258 254 254 244 249 256 256
184 162 220 245 178 158 168 177 198 217 187 169 151 179 205 218 219 174 165 285 232 206 220 212 233 232 227 225 242 243 244 251 266 265 264 259 260 263 265 264 260 254 256 253 248 258 238 248 257 263 265 260 244 241 237 209 234 240 243 248 253 250 243 244 245 244 249 248 248 250 248 247 248 245 245 245 242 238 249 256 251 254 245 239 242 253
183 203 177 190 199 160 203 205 234 232 182 201 203 211 210 221 234 227 198 249 274 265 189 202 247 246 226 234 242 246 262 250 258 267 275 277 277 274 271 268 264 261 254 256 259 253 239 243 257 265 272 266 249 233 233 217 225 236 239 249 251 243 239 242 242 243 248 245 246 246 245 248 248 247 245 242 222 238 244 254 243 255 247 225 238 239
254 212 63 112 242 266 266 173 254 278 240 231 241 249 251 266 258 243 245 257 246 251 237 233 259 259 255 230 239 256 240 256 263 270 272 273 273 273 271 273 272 263 258 257 262 257 249 257 257 261 267 272 259 248 237 231 216 232 237 245 250 240 232 235 241 248 249 249 245 246 240 247 252 247 246 243 224 228 235 238 242 240 251 225 235 236
241 181 202 194 262 263 272 152 218 241 252 235 221 243 252 261 261 239 243 234 250 258 263 255 253 262 261 258 232 253 262 256 260 262 263 269 270 270 272 269 270 269 267 262 251 251 257 247 258 258 258 266 267 243 247 235 229 231 238 238 246 239 228 232 235 246 253 250 247 246 235 239 247 249 245 240 233 229 232 229 231 234 244 234 233 236
290 174 207 201 234 220 249 180 239 248 252 257 232 253 250 249 249 247 236 249 254 259 259 265 270 270 260 259 251 254 262 263 263 265 261 260 260 264 267 268 267 269 259 247 258 241 246 248 249 255 257 260 265 248 243 249 244 236 229 233 240 238 229 235 234 239 248 249 240 243 231 235 243 243 250 241 228 235 236 231 220 226 231 228 221 220
186 122 224 168 219 253 279 284 273 279 275 252 239 243 247 249 251 253 245 244 250 256 262 264 256 254 260 255 260 260 264 266 256 260 263 262 262 260 261 262 263 259 264 266 258 231 237 243 246 249 252 258 262 254 245 251 255 248 225 224 228 222 223 233 235 236 247 249 242 243 230 233 239 237 241 247 238 233 227 227 222 225 242 234 219 210
101 207 175 153 252 262 245 233 195 275 279 273 183 233 239 242 245 252 255 253 252 259 260 260 262 253 249 254 255 257 257 265 266 262 264 260 257 258 261 265 268 268 267 262 262 248 240 243 242 252 252 256 261 255 247 252 257 257 234 216 219 210 218 230 232 234 243 242 239 239 229 232 236 236 236 240 244 247 254 233 228 230 230 253 226 219
209 193 167 214 222 254 247 182 224 239 258 271 269 259 248 234 244 250 250 242 243 245 248 256 267 272 263 256 245 245 254 256 264 268 267 267 261 259 260 264 268 270 269 270 273 267 240 245 242 248 256 258 259 256 249 252 256 260 248 208 217 206 218 222 230 235 240 238 237 229 223 226 234 230 230 233 235 239 249 270 243 230 235 240 246 242